CW3071 Weather Reports


time (UTC)temp
F
wind
direction
speed
knots
gust
knots
rain 1hr
in
rain 24hr
in
rain mn
in
humidity
%
barometer
mb
20260831041629 64 297 1.7 6.1 0.00 0.00 0.00 56 1016.4
20260831040108 65 262 1.7 4.3 0.00 0.00 0.00 52 1016.5
20260831034606 66 247 1.7 6.1 0.00 0.00 0.00 47 1016.2
20260831033110 67 172 1.7 5.2 0.00 0.00 0.00 45 1016.3
20260831031612 68 0 0.0 5.2 0.00 0.00 0.00 41 1016.0
20260831030118 70 251 0.9 7.8 0.00 0.00 0.00 30 1015.8
20260831024602 72 0 1.7 6.1 0.00 0.00 0.00 27 1015.5
20260831023109 73 263 1.7 7.0 0.00 0.00 0.00 26 1015.1
20260831021613 73 257 2.6 9.6 0.00 0.00 0.00 25 1015.0
20260831020113 74 225 4.3 13.0 0.00 0.00 0.00 25 1014.8
20260831014607 75 235 4.3 10.4 0.00 0.00 0.00 24 1014.6
20260831013107 76 222 4.3 11.3 0.00 0.00 0.00 23 1014.6
20260831011603 77 309 5.2 12.2 0.00 0.00 0.00 23 1014.5
20260831010107 78 255 5.2 13.9 0.00 0.00 0.00 24 1014.3
20260831004604 78 243 7.0 13.9 0.00 0.00 0.00 23 1014.5
20260831003107 79 227 3.5 13.0 0.00 0.00 0.00 26 1014.5
20260831001602 79 259 6.1 11.3 0.00 0.00 0.00 25 1014.6
20260831000106 79 233 6.1 13.9 0.00 0.00 0.00 24 1014.7
20260830234607 79 211 7.0 17.4 0.00 0.00 0.00 27 1014.5
20260830233106 79 196 7.0 13.9 0.00 0.00 0.00 29 1014.5
20260830231606 80 220 6.1 16.5 0.00 0.00 0.00 29 1014.3
20260830230111 79 238 5.2 13.9 0.00 0.00 0.00 30 1014.6
20260830224609 78 174 4.3 16.5 0.00 0.00 0.00 30 1014.6
20260830223108 79 268 7.0 17.4 0.00 0.00 0.00 28 1014.7
20260830221627 79 206 7.8 13.9 0.00 0.00 0.00 31 1014.8
20260830220116 78 217 7.0 18.2 0.00 0.00 0.00 32 1015.0
20260830214607 79 260 7.8 17.4 0.00 0.00 0.00 31 1015.0
20260830213106 78 214 9.6 19.1 0.00 0.00 0.00 30 1015.1
20260830211611 77 242 7.8 16.5 0.00 0.00 0.00 31 1015.1
20260830210105 77 201 8.7 20.9 0.00 0.00 0.00 31 1015.1
20260830204607 77 218 7.8 20.0 0.00 0.00 0.00 32 1015.2
20260830203105 77 274 7.0 21.7 0.00 0.00 0.00 32 1015.2
20260830201635 77 252 8.7 20.0 0.00 0.00 0.00 33 1015.1
20260830200113 78 261 9.6 23.5 0.00 0.00 0.00 31 1015.2
20260830194615 78 193 11.3 24.3 0.00 0.00 0.00 31 1015.0
20260830193112 79 302 7.8 21.7 0.00 0.00 0.00 32 1014.5
20260830191607 79 226 8.7 20.0 0.00 0.00 0.00 33 1014.5
20260830190103 78 213 10.4 23.5 0.00 0.00 0.00 32 1014.2
20260830184606 79 194 11.3 21.7 0.00 0.00 0.00 31 1014.2
20260830183103 77 219 8.7 20.9 0.00 0.00 0.00 33 1014.4
20260830181607 77 240 8.7 21.7 0.00 0.00 0.00 31 1014.4
20260830180105 79 215 12.2 22.6 0.00 0.00 0.00 33 1014.3
20260830174603 79 204 8.7 20.9 0.00 0.00 0.00 34 1014.3
20260830173123 78 222 7.8 13.0 0.00 0.00 0.00 36 1014.6
20260830171604 76 182 7.0 13.9 0.00 0.00 0.00 42 1014.7
20260830170110 75 262 7.0 16.5 0.00 0.00 0.00 41 1015.1
20260830164612 75 210 7.0 14.8 0.00 0.00 0.00 44 1015.1
20260830163115 72 188 7.0 18.2 0.00 0.00 0.00 48 1015.2
20260830161610 72 203 8.7 18.2 0.00 0.00 0.00 49 1015.1
20260830160107 71 172 7.0 16.5 0.00 0.00 0.00 51 1015.1
20260830154612 70 210 7.0 13.9 0.00 0.00 0.00 53 1015.2
20260830153112 69 228 7.8 15.6 0.00 0.00 0.00 55 1015.3
20260830151604 68 200 6.1 13.9 0.00 0.00 0.00 57 1015.3
20260830150106 67 203 7.8 16.5 0.00 0.00 0.00 60 1015.5
20260830144613 65 190 5.2 13.0 0.00 0.00 0.00 62 1015.3
20260830143059 65 222 6.1 14.8 0.00 0.00 0.00 63 1014.9
20260830141620 64 168 6.1 12.2 0.00 0.00 0.00 65 1014.8
20260830140119 64 194 5.2 14.8 0.00 0.00 0.00 65 1014.9
20260830134608 64 226 7.0 14.8 0.00 0.00 0.00 65 1014.8
20260830133108 63 213 6.1 11.3 0.00 0.00 0.00 67 1014.8
20260830131600 62 191 5.2 10.4 0.00 0.00 0.00 67 1014.9
20260830130108 62 207 4.3 11.3 0.00 0.00 0.00 68 1015.0
20260830124602 62 222 1.7 7.8 0.00 0.00 0.00 69 1015.1
20260830123105 62 195 0.0 5.2 0.00 0.00 0.00 69 1015.0
20260830121603 61 0 0.9 2.6 0.00 0.00 0.00 68 1014.7
20260830120107 62 154 1.7 9.6 0.00 0.00 0.00 68 1014.5
20260830114605 62 162 4.3 10.4 0.00 0.00 0.00 67 1014.5
20260830113101 61 165 2.6 5.2 0.00 0.00 0.00 68 1014.6
20260830111604 61 0 0.0 2.6 0.00 0.00 0.00 66 1014.8
20260830110104 62 299 1.7 4.3 0.00 0.00 0.00 65 1015.1
20260830104606 63 0 0.0 2.6 0.00 0.00 0.00 63 1015.3
20260830103102 64 276 0.9 7.8 0.00 0.00 0.00 62 1015.1
20260830101609 64 162 5.2 14.8 0.00 0.00 0.00 61 1014.9
20260830100122 64 163 3.5 13.0 0.00 0.00 0.00 60 1014.6
20260830094601 65 175 5.2 11.3 0.00 0.00 0.00 59 1014.6
20260830093104 64 193 6.1 13.9 0.00 0.00 0.00 60 1014.6
20260830091603 64 187 5.2 14.8 0.00 0.00 0.00 60 1014.5
20260830084606 64 183 4.3 13.0 0.00 0.00 0.00 61 1014.6
20260830083102 64 194 4.3 9.6 0.00 0.00 0.00 62 1014.5
20260830081603 63 207 5.2 11.3 0.00 0.00 0.00 62 1014.5
20260830080104 64 195 6.1 12.2 0.00 0.00 0.00 62 1014.6
20260830074601 65 184 5.2 10.4 0.00 0.00 0.00 61 1014.8
20260830073101 65 197 6.1 14.8 0.00 0.00 0.00 61 1014.8
20260830071603 65 192 6.1 13.9 0.00 0.00 0.00 61 1014.5
20260830070104 64 193 7.0 14.8 0.00 0.00 0.00 62 1014.7
20260830064604 64 180 7.8 14.8 0.00 0.00 0.00 62 1014.7
20260830063114 64 170 3.5 8.7 0.00 0.00 0.00 62 1014.8
20260830061601 64 212 3.5 8.7 0.00 0.00 0.00 61 1015.0
20260830060104 65 184 4.3 8.7 0.00 0.00 0.00 61 1015.1
20260830054600 65 193 4.3 8.7 0.00 0.00 0.00 61 1015.3
20260830053101 65 179 4.3 8.7 0.00 0.00 0.00 60 1015.1
20260830051600 66 203 6.1 11.3 0.00 0.00 0.00 59 1015.5
20260830050120 66 181 6.1 13.9 0.00 0.00 0.00 58 1015.5
20260830044615 67 213 7.8 14.8 0.00 0.00 0.00 57 1015.7
20260830043119 67 201 7.0 14.8 0.00 0.00 0.00 55 1015.7